This demonstration page uses our WeatherBlox Daily Observations layout. Learn more.

Left ArrowRight Arrow

Hourly Observations for May 22, 2021

Temp ( °F °C ) Dew Point ( °F °C ) Humidity (%) Winds ( mph kmh ) Pressure ( in mb ) Visibility ( mi km ) Precip ( " mm )
12:56 am 00:56 Mostly Cloudy 67 19.4 63 17.2 87 87 S 18 30 30.11 1020 10 16 0.00 0.00
1:11 am 01:11 Cloudy 68 20 64 18 88 88 S 17 28 30.08 1018 10 16 0.00 0.00
1:56 am 01:56 Mostly Cloudy 67 19.4 64 17.8 91 91 S 18 30 30.09 1019 10 16 0.00 0.00
2:12 am 02:12 Mostly Cloudy 66 19 64 18 94 94 S 16 26 30.07 1018 10 16 0.00 0.00
2:21 am 02:21 Partly Cloudy 66 19 63 17 88 88 S 16 26 30.07 1018 10 16 0.00 0.00
2:34 am 02:34 Mostly Cloudy 66 19 64 18 94 94 S 14 22 30.07 1018 10 16 0.00 0.00
2:56 am 02:56 Cloudy 66 18.9 64 17.8 93 93 S 12 19 30.10 1019 10 16 0.00 0.00
3:56 am 03:56 Cloudy 66 18.9 64 17.8 93 93 S 16 26 30.10 1019 10 16 0.00 0.00
4:05 am 04:05 Cloudy 66 19 64 18 94 94 SSE 14 22 30.07 1018 10 16 0.00 0.00
4:12 am 04:12 Cloudy 66 19 64 18 94 94 S 12 19 30.07 1018 10 16 0.00 0.00
4:22 am 04:22 Cloudy 66 19 64 18 94 94 SSE 15 24 30.07 1018 10 16 0.00 0.00
4:48 am 04:48 Cloudy 66 19 64 18 94 94 S 17 28 30.07 1018 10 16 0.00 0.00
4:56 am 04:56 Cloudy 66 18.9 64 17.8 93 93 SSE 14 22 30.09 1019 10 16 0.00 0.00
5:09 am 05:09 Cloudy 66 19 64 18 94 94 S 14 22 30.08 1019 10 16 0.00 0.00
5:40 am 05:40 Cloudy 66 19 64 18 94 94 S 15 24 30.08 1019 10 16 0.00 0.00
5:56 am 05:56 Cloudy 66 18.9 64 17.8 93 93 SSE 14 22 30.11 1020 10 16 0.00 0.00
6:35 am 06:35 Cloudy 64 18 63 17 94 94 SSE 15 24 30.10 1019 10 16 0.00 0.00
6:56 am 06:56 Cloudy 66 18.9 63 17.2 90 90 SSE 14 22 30.12 1020 10 16 0.00 0.00
7:56 am 07:56 Cloudy 66 18.9 63 17.2 90 90 S 15 24 30.14 1021 10 16 0.00 0.00
8:10 am 08:10 Cloudy 66 19 64 18 94 94 S 14 22 30.12 1020 10 16 0.00 0.00
8:56 am 08:56 Cloudy 68 20 64 17.8 87 87 S 15 24 30.16 1021 10 16 0.00 0.00
9:51 am 09:51 Cloudy 70 21 64 18 83 83 S 20 31 30.12 1020 10 16 0.00 0.00
9:56 am 09:56 Cloudy 69 20.6 64 17.8 84 84 S 17 28 30.16 1022 10 16 0.00 0.00
10:56 am 10:56 Cloudy 70 21.1 64 17.8 82 82 S 16 26 30.16 1021 10 16 0.00 0.00
11:56 am 11:56 Cloudy 71 21.7 64 17.8 79 79 S 18 30 30.16 1021 10 16 0.00 0.00
12:56 pm 12:56 Cloudy 74 23.3 64 17.8 71 71 S 18 30 30.15 1021 10 16 0.00 0.00
1:45 pm 13:45 Cloudy 73 23 64 18 74 74 S 18 30 30.10 1019 10 16 0.00 0.00
1:52 pm 13:52 Cloudy 73 23 64 18 74 74 S 18 30 30.10 1019 10 16 0.00 0.00
1:56 pm 13:56 Cloudy 73 22.8 64 17.8 74 74 S 16 26 30.16 1021 10 16 0.00 0.00
2:06 pm 14:06 Cloudy 73 23 64 18 74 74 S 16 26 30.09 1019 10 16 0.00 0.00
2:56 pm 14:56 Cloudy 74 23.3 64 17.8 71 71 SSE 17 28 30.16 1021 10 16 0.00 0.00
3:56 pm 15:56 Cloudy 74 23.3 64 17.8 71 71 S 16 26 30.15 1021 10 16 0.00 0.00
4:56 pm 16:56 Mostly Cloudy 78 25.6 65 18.3 64 64 S 17 28 30.10 1019 10 16 0.00 0.00
5:56 pm 17:56 Mostly Cloudy 77 25 63 17.2 62 62 S 15 24 30.09 1019 10 16 0.00 0.00
6:56 pm 18:56 Sunny 77 25 64 17.8 64 64 SSE 14 22 30.09 1019 10 16 0.00 0.00
7:56 pm 19:56 Sunny 75 23.9 63 17.2 66 66 S 9 15 30.09 1019 10 16 0.00 0.00
8:56 pm 20:56 Mostly Cloudy 73 22.8 63 17.2 71 71 SSE 8 13 30.11 1020 10 16 0.00 0.00
9:56 pm 21:56 Mostly Cloudy 72 22.2 63 17.2 73 73 SSE 12 19 30.11 1020 10 16 0.00 0.00
10:56 pm 22:56 Mostly Clear 70 21.1 65 18.3 84 84 SSE 15 24 30.12 1020 10 16 0.00 0.00
11:56 pm 23:56 Partly Cloudy 68 20 64 17.8 87 87 SSE 13 20 30.13 1020 10 16 0.00 0.00

Powered by AerisWeather